Preview of NWS' New Version of Forecast
This preview is not operational and should not be used for support decisions.

Regional Weather Roundup (RWR)

Issued by Philadelphia/Mt Holly (PHI)

                            
000
ASUS41 KPHI 260812
RWRPHI

REGIONAL WEATHER ROUNDUP
NATIONAL WEATHER SERVICE MOUNT HOLLY NJ
400 AM EDT SUN MAY 26 2019

NOTE:  "FAIR" INDICATES FEW OR NO CLOUDS BELOW 12,000 FEET WITH NO
SIGNIFICANT WEATHER AND/OR OBSTRUCTIONS TO VISIBILITY.

 * = STATION DOES NOT REPORT PRECIPITATION (E.G. RAIN, SNOW, ETC.) 
        OR FOG.

NJZ015>026-260900-
SOUTHERN NEW JERSEY
  
CITY           SKY/WX    TMP DP  RH WIND       PRES   REMARKS
POMONA         FAIR      67  66  97 SW12      29.98S                  
WILDWOOD*      FAIR     N/A N/A N/A S5        30.00F HAZE             
MILLVILLE      CLOUDY    65  65 100 CALM      29.98S                  
WRIGHTSTOWN    MOCLDY    61  59  94 W3        29.96R                  
MOUNT HOLLY    CLOUDY    61  59  93 CALM      29.98R                  
TRENTON        CLOUDY    61  57  87 CALM      29.97S                  

$$
NJZ001>014-260900-
NORTHERN NEW JERSEY
  
CITY           SKY/WX    TMP DP  RH WIND       PRES   REMARKS
SUSSEX         CLOUDY    58  57  97 SW5       29.96S                  
ANDOVER*         N/A     59  56  89 SW3       29.96F                  
MORRISTOWN     CLOUDY    61  55  82 SW6       29.96S                  
NEWARK         CLOUDY    62  56  80 SW13      29.95F                  
TETERBORO      CLOUDY    63  56  78 SW9       29.94F                  
CALDWELL       CLOUDY    62  56  80 VRB6      29.96F                  
SOMERVILLE     CLOUDY    60  58  92 CALM      29.95F                  
ALLAIRE*       MOCLDY    60  57  89 SW6       29.98S                  
TOMS RIVER*    CLOUDY    64  63  96 SW6       29.97F                  

$$
PAZ043-044-047-054-055-060>062-066>071-260900-
EASTERN PENNSYLVANIA
  
CITY           SKY/WX    TMP DP  RH WIND       PRES   REMARKS
PHILADELPHIA   MOCLDY    63  62  97 W6        29.98R                  
NORTH PHILA    CLOUDY    66  60  81 SW6       29.99S                  
BLUE BELL*     CLOUDY    64  62  93 SW3       29.98F                  
DOYLESTOWN     CLOUDY    63  58  83 CALM      29.97F                  
QUAKERTOWN*    CLOUDY    63  61  94 CALM      29.98F                  
PERKASIE*      CLOUDY    61  61 100 CALM      29.99S                  
POTTSTOWN      CLOUDY    62  60  93 CALM      29.99S                  
LANCASTER      FAIR      61  61 100 CALM      29.98S                  
COATESVILLE      N/A     64  64 100 VRB7      30.00S FOG              
WEST CHESTER   CLOUDY    63  61  94 SW5       29.98F                  
READING        CLOUDY    64  62  93 CALM      29.97S                  
ALLENTOWN      CLOUDY    64  57  78 CALM      29.97F                  
QN CITY/ALNTWN CLOUDY    63  59  88 CALM      29.99S                  
MOUNT POCONO   CLOUDY    58  58 100 W12       29.98F                  
HAZLETON       CLOUDY    61  59  94 CALM      30.02S FOG              
LEHIGHTON      CLOUDY    61  61 100 CALM      29.99S                  
WILKES BARRE   CLOUDY    64  62  93 NW3       29.96F                  

$$
DEZALL-MDZ008-012-015-019-020-260900-
DELAWARE AND EASTERN MARYLAND
  
CITY           SKY/WX    TMP DP  RH WIND       PRES   REMARKS
WILMINGTON     FAIR      62  62 100 CALM      29.98S                  
DOVER          PTCLDY    66  66 100 S6        29.98S                  
CHESWOLD         N/A     64  64 100 SW6       29.98F                  
GEORGETOWN     FAIR      69  66  90 SW3       30.00F                  
EASTON         FAIR      69  68  96 SW5       30.03S                  
STEVENSVILLE   FAIR      68  68 100 S5        29.99F                  
PATUXENT       CLOUDY    71  71 100 SW8       30.00                   
OCEAN CITY     CLOUDY    70  68  93 SW15G21   30.00F                  
WALLOPS ISLAND CLOUDY    70  70 100 S7        30.03R                  
CAMBRIDGE      MOCLDY    70  70 100 CALM      30.00S                  
SALISBURY      MOCLDY    70  69  97 SW10      29.99F                  

$$
PAZ001-021-NYZ056-072-MDZ011-DCZ001-260900-
OTHER NEARBY LOCATIONS
  
CITY           SKY/WX    TMP DP  RH WIND       PRES   REMARKS
HARRISBURG     MOCLDY    67  63  87 CALM      29.97F                  
STATE COLLEGE  FAIR      62  62  97 S5        30.00S                  
WILLIAMSPORT   FOG       63  62  97 CALM      29.96R VSB 1            
BINGHAMTON     CLOUDY    61  61 100 W7        29.95R FOG              
NEW YORK CITY  CLOUDY    62  57  83 SW9       29.97F                  
BALTIMORE      FAIR      67  64  90 SW5       29.98F                  
WASHINGTON DC  MOCLDY    70  66  87 SW3       30.00F                  

$$